| time (UTC) | temp F | wind direction | speed MPH | gust MPH | rain 1hr in | rain 24hr in | rain mn in | humidity % | barometer mb |
| 20260506104324 | 71 | 285 | 3.0 | 9.0 | 0.00 | 0.00 | 0.00 | 43 | 1018.1 |
| 20260506103817 | 70 | 257 | 5.0 | 9.0 | 0.00 | 0.00 | 0.00 | 44 | 1018.2 |
| 20260506103353 | 70 | 235 | 2.0 | 8.0 | 0.00 | 0.00 | 0.00 | 44 | 1018.1 |
| 20260506102816 | 70 | 198 | 2.0 | 9.0 | 0.00 | 0.00 | 0.00 | 43 | 1018.1 |
| 20260506102330 | 70 | 263 | 3.0 | 9.0 | 0.00 | 0.00 | 0.00 | 44 | 1018.2 |
| 20260506101817 | 70 | 272 | 5.0 | 10.0 | 0.00 | 0.00 | 0.00 | 43 | 1018.2 |
| 20260506101331 | 70 | 216 | 5.0 | 10.0 | 0.00 | 0.00 | 0.00 | 43 | 1018.3 |
| 20260506100816 | 70 | 269 | 4.0 | 8.0 | 0.00 | 0.00 | 0.00 | 44 | 1018.3 |
| 20260506100328 | 69 | 267 | 2.0 | 7.0 | 0.00 | 0.00 | 0.00 | 45 | 1018.4 |
| 20260506095821 | 69 | 234 | 2.0 | 8.0 | 0.00 | 0.00 | 0.00 | 45 | 1018.4 |
| 20260506095352 | 69 | 217 | 5.0 | 8.0 | 0.00 | 0.00 | 0.00 | 45 | 1018.4 |
| 20260506094837 | 69 | 225 | 2.0 | 9.0 | 0.00 | 0.00 | 0.00 | 46 | 1018.4 |
| 20260506094318 | 68 | 263 | 3.0 | 9.0 | 0.00 | 0.00 | 0.00 | 45 | 1018.4 |
| 20260506093830 | 68 | 207 | 3.0 | 9.0 | 0.00 | 0.00 | 0.00 | 47 | 1018.5 |
| 20260506093316 | 68 | 265 | 5.0 | 9.0 | 0.00 | 0.00 | 0.00 | 47 | 1018.5 |
| 20260506092826 | 68 | 253 | 5.0 | 9.0 | 0.00 | 0.00 | 0.00 | 46 | 1018.5 |
| 20260506092341 | 68 | 269 | 3.0 | 7.0 | 0.00 | 0.00 | 0.00 | 48 | 1018.5 |
| 20260506091832 | 67 | 275 | 2.0 | 7.0 | 0.00 | 0.00 | 0.00 | 48 | 1018.5 |
| 20260506091346 | 67 | 309 | 2.0 | 7.0 | 0.00 | 0.00 | 0.00 | 48 | 1018.5 |
| 20260506090815 | 67 | 253 | 2.0 | 7.0 | 0.00 | 0.00 | 0.00 | 50 | 1018.5 |
| 20260506090317 | 66 | 236 | 1.0 | 8.0 | 0.00 | 0.00 | 0.00 | 50 | 1018.7 |
| 20260506085847 | 66 | 279 | 4.0 | 8.0 | 0.00 | 0.00 | 0.00 | 49 | 1018.7 |
| 20260506085319 | 66 | 221 | 2.0 | 8.0 | 0.00 | 0.00 | 0.00 | 51 | 1018.7 |
| 20260506084827 | 66 | 279 | 3.0 | 8.0 | 0.00 | 0.00 | 0.00 | 50 | 1018.7 |
| 20260506084331 | 65 | 262 | 2.0 | 9.0 | 0.00 | 0.00 | 0.00 | 51 | 1018.7 |
| 20260506083846 | 65 | 269 | 3.0 | 6.0 | 0.00 | 0.00 | 0.00 | 51 | 1018.8 |
| 20260506083338 | 65 | 306 | 3.0 | 6.0 | 0.00 | 0.00 | 0.00 | 51 | 1018.9 |
| 20260506082822 | 65 | 264 | 2.0 | 6.0 | 0.00 | 0.00 | 0.00 | 51 | 1018.9 |
| 20260506082337 | 65 | 290 | 2.0 | 5.0 | 0.00 | 0.00 | 0.00 | 52 | 1018.9 |
| 20260506081832 | 64 | 275 | 2.0 | 6.0 | 0.00 | 0.00 | 0.00 | 53 | 1019.0 |
| 20260506081318 | 64 | 254 | 3.0 | 6.0 | 0.00 | 0.00 | 0.00 | 52 | 1019.0 |
| 20260506080833 | 64 | 238 | 3.0 | 6.0 | 0.00 | 0.00 | 0.00 | 53 | 1019.0 |
| 20260506080319 | 64 | 317 | 3.0 | 5.0 | 0.00 | 0.00 | 0.00 | 53 | 1019.1 |
| 20260506073333 | 62 | 195 | 3.0 | 6.0 | 0.00 | 0.00 | 0.00 | 53 | 1019.0 |
| 20260506072818 | 62 | 207 | 2.0 | 4.0 | 0.00 | 0.00 | 0.00 | 54 | 1019.0 |
| 20260506072332 | 62 | 5 | 2.0 | 4.0 | 0.00 | 0.00 | 0.00 | 52 | 1019.0 |
| 20260506071843 | 62 | 279 | 2.0 | 4.0 | 0.00 | 0.00 | 0.00 | 52 | 1019.0 |
| 20260506071326 | 62 | 297 | 2.0 | 6.0 | 0.00 | 0.00 | 0.00 | 52 | 1019.1 |
| 20260506070820 | 63 | 253 | 1.0 | 6.0 | 0.00 | 0.00 | 0.00 | 52 | 1019.1 |
| 20260506070335 | 62 | 317 | 1.0 | 4.0 | 0.00 | 0.00 | 0.00 | 51 | 1019.2 |
| 20260506062343 | 60 | 317 | 0.0 | 2.0 | 0.00 | 0.00 | 0.00 | 54 | 1019.1 |
| 20260506061828 | 59 | 317 | 0.0 | 3.0 | 0.00 | 0.00 | 0.00 | 54 | 1019.1 |
| 20260506061322 | 59 | 317 | 0.0 | 3.0 | 0.00 | 0.00 | 0.00 | 54 | 1019.1 |
| 20260506060828 | 59 | 317 | 1.0 | 3.0 | 0.00 | 0.00 | 0.00 | 56 | 1019.0 |
| 20260506060322 | 59 | 326 | 1.0 | 2.0 | 0.00 | 0.00 | 0.00 | 55 | 1019.1 |
| 20260506051316 | 59 | 76 | 0.0 | 0.0 | 0.00 | 0.00 | 0.00 | 59 | 1019.0 |
| 20260506050821 | 58 | 76 | 0.0 | 0.0 | 0.00 | 0.00 | 0.00 | 59 | 1019.0 |
| 20260506050403 | 58 | 77 | 0.0 | 1.0 | 0.00 | 0.00 | 0.00 | 60 | 1019.2 |
| 20260506044816 | 55 | 77 | 0.0 | 2.0 | 0.00 | 0.00 | 0.00 | 60 | 1019.0 |
| 20260506044320 | 54 | 76 | 0.0 | 2.0 | 0.00 | 0.00 | 0.00 | 61 | 1019.2 |
| 20260506043832 | 54 | 76 | 0.0 | 2.0 | 0.00 | 0.00 | 0.00 | 61 | 1019.1 |
| 20260506043316 | 53 | 76 | 1.0 | 2.0 | 0.00 | 0.00 | 0.00 | 62 | 1019.0 |
| 20260506042824 | 52 | 76 | 0.0 | 3.0 | 0.00 | 0.00 | 0.00 | 63 | 1019.0 |
| 20260506042339 | 51 | 76 | 1.0 | 3.0 | 0.00 | 0.00 | 0.00 | 63 | 1019.1 |
| 20260506041831 | 51 | 75 | 2.0 | 3.0 | 0.00 | 0.00 | 0.00 | 62 | 1019.1 |
| 20260506041316 | 51 | 91 | 1.0 | 2.0 | 0.00 | 0.00 | 0.00 | 62 | 1018.7 |
| 20260506040830 | 51 | 91 | 0.0 | 0.0 | 0.00 | 0.00 | 0.00 | 61 | 1018.9 |
| 20260506040404 | 51 | 91 | 0.0 | 1.0 | 0.00 | 0.00 | 0.00 | 61 | 1018.8 |
| 20260506035848 | 51 | 91 | 0.0 | 1.0 | 0.00 | 0.00 | 0.00 | 61 | 1018.9 |
| 20260506035321 | 51 | 91 | 0.0 | 2.0 | 0.00 | 0.00 | 0.00 | 60 | 1018.8 |
| 20260506034845 | 51 | 91 | 1.0 | 2.0 | 0.00 | 0.00 | 0.00 | 60 | 1018.8 |
| 20260506034319 | 51 | 91 | 0.0 | 2.0 | 0.00 | 0.00 | 0.00 | 59 | 1018.7 |
| 20260506033823 | 51 | 91 | 0.0 | 1.0 | 0.00 | 0.00 | 0.00 | 58 | 1018.6 |
| 20260506033337 | 51 | 91 | 0.0 | 3.0 | 0.00 | 0.00 | 0.00 | 59 | 1018.6 |
| 20260506032830 | 51 | 91 | 1.0 | 3.0 | 0.00 | 0.00 | 0.00 | 58 | 1018.7 |
| 20260506032315 | 52 | 92 | 0.0 | 2.0 | 0.00 | 0.00 | 0.00 | 58 | 1018.6 |
| 20260506031825 | 51 | 92 | 1.0 | 3.0 | 0.00 | 0.00 | 0.00 | 58 | 1018.7 |
| 20260506031340 | 51 | 92 | 2.0 | 4.0 | 0.00 | 0.00 | 0.00 | 57 | 1018.7 |
| 20260506030824 | 51 | 98 | 2.0 | 4.0 | 0.00 | 0.00 | 0.00 | 58 | 1018.6 |
| 20260506030338 | 51 | 98 | 1.0 | 2.0 | 0.00 | 0.00 | 0.00 | 57 | 1018.5 |
| 20260506025831 | 51 | 98 | 0.0 | 2.0 | 0.00 | 0.00 | 0.00 | 58 | 1018.5 |
| 20260506025316 | 51 | 98 | 0.0 | 2.0 | 0.00 | 0.00 | 0.00 | 57 | 1018.5 |
| 20260506024821 | 51 | 98 | 0.0 | 1.0 | 0.00 | 0.00 | 0.00 | 57 | 1018.4 |
| 20260506024336 | 52 | 98 | 0.0 | 3.0 | 0.00 | 0.00 | 0.00 | 56 | 1018.4 |
| 20260506023842 | 52 | 98 | 1.0 | 3.0 | 0.00 | 0.00 | 0.00 | 56 | 1018.4 |
| 20260506023316 | 51 | 98 | 1.0 | 3.0 | 0.00 | 0.00 | 0.00 | 56 | 1018.4 |
| 20260506022832 | 51 | 98 | 0.0 | 3.0 | 0.00 | 0.00 | 0.00 | 56 | 1018.4 |
| 20260506022336 | 52 | 98 | 1.0 | 3.0 | 0.00 | 0.00 | 0.00 | 55 | 1018.4 |
| 20260506021830 | 52 | 100 | 0.0 | 2.0 | 0.00 | 0.00 | 0.00 | 55 | 1018.3 |
| 20260506021315 | 52 | 100 | 1.0 | 2.0 | 0.00 | 0.00 | 0.00 | 54 | 1018.4 |
| 20260506020830 | 52 | 101 | 0.0 | 2.0 | 0.00 | 0.00 | 0.00 | 55 | 1018.4 |
| 20260506020315 | 52 | 101 | 1.0 | 2.0 | 0.00 | 0.00 | 0.00 | 54 | 1018.4 |
| 20260506015830 | 52 | 101 | 1.0 | 2.0 | 0.00 | 0.00 | 0.00 | 54 | 1018.4 |
| 20260506015325 | 52 | 101 | 0.0 | 2.0 | 0.00 | 0.00 | 0.00 | 54 | 1018.3 |
| 20260506014833 | 52 | 101 | 0.0 | 3.0 | 0.00 | 0.00 | 0.00 | 54 | 1018.4 |
| 20260506014402 | 53 | 101 | 2.0 | 3.0 | 0.00 | 0.00 | 0.00 | 54 | 1018.5 |
| 20260506013826 | 53 | 102 | 1.0 | 2.0 | 0.00 | 0.00 | 0.00 | 51 | 1018.4 |
| 20260506013340 | 53 | 103 | 0.0 | 4.0 | 0.00 | 0.00 | 0.00 | 53 | 1018.4 |
| 20260506012845 | 53 | 82 | 0.0 | 2.0 | 0.00 | 0.00 | 0.00 | 53 | 1018.4 |
| 20260506012318 | 53 | 82 | 0.0 | 2.0 | 0.00 | 0.00 | 0.00 | 54 | 1018.5 |
| 20260506011823 | 53 | 82 | 0.0 | 2.0 | 0.00 | 0.00 | 0.00 | 53 | 1018.3 |
| 20260506011315 | 53 | 82 | 0.0 | 4.0 | 0.00 | 0.00 | 0.00 | 54 | 1018.5 |
| 20260506010831 | 54 | 82 | 0.0 | 4.0 | 0.00 | 0.00 | 0.00 | 53 | 1018.3 |
| 20260506010315 | 53 | 12 | 1.0 | 3.0 | 0.00 | 0.00 | 0.00 | 52 | 1018.2 |
| 20260506005829 | 54 | 22 | 1.0 | 3.0 | 0.00 | 0.00 | 0.00 | 54 | 1018.2 |
| 20260506005315 | 54 | 5 | 2.0 | 3.0 | 0.00 | 0.00 | 0.00 | 53 | 1018.2 |
| 20260506004818 | 54 | 5 | 2.0 | 3.0 | 0.00 | 0.00 | 0.00 | 53 | 1018.3 |
| 20260506004333 | 54 | 5 | 0.0 | 2.0 | 0.00 | 0.00 | 0.00 | 54 | 1018.3 |
| 20260506003819 | 55 | 5 | 1.0 | 3.0 | 0.00 | 0.00 | 0.00 | 53 | 1018.2 |
| 20260506003334 | 55 | 15 | 1.0 | 3.0 | 0.00 | 0.00 | 0.00 | 52 | 1018.2 |
| 20260506002819 | 55 | 109 | 0.0 | 3.0 | 0.00 | 0.00 | 0.00 | 52 | 1018.2 |
| 20260506002333 | 55 | 109 | 1.0 | 4.0 | 0.00 | 0.00 | 0.00 | 52 | 1018.2 |
| 20260506001827 | 54 | 109 | 1.0 | 4.0 | 0.00 | 0.00 | 0.00 | 54 | 1018.2 |
| 20260506001357 | 54 | 94 | 1.0 | 3.0 | 0.00 | 0.00 | 0.00 | 54 | 1018.2 |
| 20260506000822 | 54 | 102 | 1.0 | 4.0 | 0.00 | 0.00 | 0.00 | 55 | 1018.2 |
| 20260506000337 | 54 | 103 | 1.0 | 4.0 | 0.00 | 0.00 | 0.00 | 54 | 1018.2 |
| 20260505235823 | 54 | 87 | 0.0 | 3.0 | 0.00 | 0.00 | 0.00 | 54 | 1018.2 |
| 20260505235336 | 54 | 89 | 2.0 | 3.0 | 0.00 | 0.00 | 0.00 | 55 | 1018.3 |
| 20260505234822 | 54 | 102 | 1.0 | 3.0 | 0.00 | 0.00 | 0.00 | 55 | 1018.2 |
| 20260505234336 | 54 | 101 | 1.0 | 3.0 | 0.00 | 0.00 | 0.00 | 55 | 1018.3 |
| 20260505233821 | 54 | 105 | 2.0 | 4.0 | 0.00 | 0.00 | 0.00 | 55 | 1018.3 |
| 20260505233317 | 54 | 115 | 2.0 | 4.0 | 0.00 | 0.00 | 0.00 | 55 | 1018.3 |
| 20260505232823 | 54 | 103 | 0.0 | 3.0 | 0.00 | 0.00 | 0.00 | 55 | 1018.4 |
| 20260505232318 | 54 | 109 | 0.0 | 4.0 | 0.00 | 0.00 | 0.00 | 55 | 1018.4 |
| 20260505231824 | 54 | 111 | 2.0 | 4.0 | 0.00 | 0.00 | 0.00 | 56 | 1018.4 |
| 20260505231319 | 53 | 88 | 2.0 | 6.0 | 0.00 | 0.00 | 0.00 | 56 | 1018.4 |
| 20260505230835 | 54 | 99 | 3.0 | 6.0 | 0.00 | 0.00 | 0.00 | 56 | 1018.5 |
| 20260505230321 | 54 | 95 | 0.0 | 3.0 | 0.00 | 0.00 | 0.00 | 56 | 1018.4 |
| 20260505225836 | 53 | 96 | 0.0 | 3.0 | 0.00 | 0.00 | 0.00 | 56 | 1018.4 |
| 20260505225321 | 53 | 96 | 1.0 | 3.0 | 0.00 | 0.00 | 0.00 | 56 | 1018.4 |
| 20260505224828 | 53 | 90 | 2.0 | 3.0 | 0.00 | 0.00 | 0.00 | 55 | 1018.5 |
| 20260505224341 | 54 | 95 | 1.0 | 3.0 | 0.00 | 0.00 | 0.00 | 55 | 1018.5 |
| 20260505223826 | 54 | 96 | 1.0 | 3.0 | 0.00 | 0.00 | 0.00 | 55 | 1018.4 |
| 20260505223319 | 54 | 96 | 1.0 | 3.0 | 0.00 | 0.00 | 0.00 | 55 | 1018.5 |
| 20260505222850 | 54 | 96 | 0.0 | 2.0 | 0.00 | 0.00 | 0.00 | 55 | 1018.6 |
| 20260505222343 | 54 | 97 | 1.0 | 4.0 | 0.00 | 0.00 | 0.00 | 55 | 1018.5 |
| 20260505221828 | 54 | 96 | 2.0 | 4.0 | 0.00 | 0.00 | 0.00 | 55 | 1018.5 |
| 20260505221321 | 54 | 106 | 0.0 | 0.0 | 0.00 | 0.00 | 0.00 | 55 | 1018.4 |
| 20260505220854 | 55 | 106 | 0.0 | 1.0 | 0.00 | 0.00 | 0.00 | 55 | 1018.5 |
| 20260505220326 | 55 | 106 | 0.0 | 2.0 | 0.00 | 0.00 | 0.00 | 54 | 1018.5 |
| 20260505215835 | 55 | 106 | 0.0 | 2.0 | 0.00 | 0.00 | 0.00 | 54 | 1018.4 |
| 20260505215320 | 54 | 106 | 0.0 | 1.0 | 0.00 | 0.00 | 0.00 | 54 | 1018.5 |
| 20260505214826 | 55 | 106 | 0.0 | 0.0 | 0.00 | 0.00 | 0.00 | 55 | 1018.4 |
| 20260505214340 | 55 | 106 | 0.0 | 1.0 | 0.00 | 0.00 | 0.00 | 54 | 1018.5 |
| 20260505213825 | 56 | 106 | 0.0 | 1.0 | 0.00 | 0.00 | 0.00 | 52 | 1018.4 |
| 20260505213319 | 56 | 106 | 0.0 | 1.0 | 0.00 | 0.00 | 0.00 | 52 | 1018.5 |
| 20260505212824 | 56 | 106 | 0.0 | 1.0 | 0.00 | 0.00 | 0.00 | 51 | 1018.6 |
| 20260505212332 | 56 | 106 | 0.0 | 2.0 | 0.00 | 0.00 | 0.00 | 52 | 1018.6 |
| 20260505211845 | 56 | 106 | 0.0 | 2.0 | 0.00 | 0.00 | 0.00 | 52 | 1018.6 |
| 20260505211319 | 56 | 106 | 1.0 | 2.0 | 0.00 | 0.00 | 0.00 | 51 | 1018.6 |
| 20260505210825 | 57 | 106 | 1.0 | 2.0 | 0.00 | 0.00 | 0.00 | 51 | 1018.6 |
| 20260505210321 | 57 | 106 | 0.0 | 4.0 | 0.00 | 0.00 | 0.00 | 50 | 1018.6 |
| 20260505205828 | 57 | 104 | 2.0 | 4.0 | 0.00 | 0.00 | 0.00 | 50 | 1018.5 |
| 20260505205324 | 56 | 123 | 1.0 | 3.0 | 0.00 | 0.00 | 0.00 | 50 | 1018.6 |
| 20260505204830 | 57 | 106 | 2.0 | 3.0 | 0.00 | 0.00 | 0.00 | 51 | 1018.5 |
| 20260505204316 | 57 | 219 | 0.0 | 1.0 | 0.00 | 0.00 | 0.00 | 52 | 1018.6 |
| 20260505203829 | 57 | 219 | 0.0 | 2.0 | 0.00 | 0.00 | 0.00 | 51 | 1018.5 |
| 20260505203343 | 58 | 219 | 1.0 | 2.0 | 0.00 | 0.00 | 0.00 | 50 | 1018.5 |
| 20260505202838 | 59 | 236 | 0.0 | 2.0 | 0.00 | 0.00 | 0.00 | 51 | 1018.5 |
| 20260505202321 | 59 | 236 | 0.0 | 1.0 | 0.00 | 0.00 | 0.00 | 49 | 1018.5 |
| 20260505201816 | 60 | 236 | 0.0 | 1.0 | 0.00 | 0.00 | 0.00 | 46 | 1018.5 |
| 20260505201329 | 60 | 236 | 0.0 | 3.0 | 0.00 | 0.00 | 0.00 | 45 | 1018.4 |
| 20260505200858 | 60 | 237 | 0.0 | 3.0 | 0.00 | 0.00 | 0.00 | 45 | 1018.4 |
| 20260505200322 | 60 | 238 | 0.0 | 2.0 | 0.00 | 0.00 | 0.00 | 46 | 1018.4 |
| 20260505195855 | 60 | 236 | 0.0 | 2.0 | 0.00 | 0.00 | 0.00 | 47 | 1018.4 |
| 20260505195327 | 60 | 237 | 0.0 | 2.0 | 0.00 | 0.00 | 0.00 | 46 | 1018.4 |
| 20260505194854 | 61 | 237 | 0.0 | 4.0 | 0.00 | 0.00 | 0.00 | 46 | 1018.4 |
| 20260505194326 | 61 | 192 | 0.0 | 2.0 | 0.00 | 0.00 | 0.00 | 44 | 1018.2 |
| 20260505193828 | 61 | 194 | 0.0 | 3.0 | 0.00 | 0.00 | 0.00 | 44 | 1018.3 |
| 20260505193320 | 61 | 145 | 1.0 | 3.0 | 0.00 | 0.00 | 0.00 | 45 | 1018.2 |
| 20260505192816 | 61 | 159 | 1.0 | 2.0 | 0.00 | 0.00 | 0.00 | 45 | 1018.2 |
| 20260505192320 | 61 | 173 | 1.0 | 3.0 | 0.00 | 0.00 | 0.00 | 45 | 1018.2 |
| 20260505191815 | 61 | 182 | 1.0 | 3.0 | 0.00 | 0.00 | 0.00 | 44 | 1018.2 |
| 20260505191330 | 62 | 227 | 0.0 | 1.0 | 0.00 | 0.00 | 0.00 | 44 | 1018.1 |
| 20260505190816 | 62 | 227 | 0.0 | 2.0 | 0.00 | 0.00 | 0.00 | 43 | 1018.1 |
| 20260505190329 | 63 | 228 | 0.0 | 2.0 | 0.00 | 0.00 | 0.00 | 42 | 1018.0 |
| 20260505185815 | 63 | 228 | 0.0 | 2.0 | 0.00 | 0.00 | 0.00 | 41 | 1017.9 |
| 20260505185326 | 63 | 228 | 0.0 | 7.0 | 0.00 | 0.00 | 0.00 | 41 | 1017.8 |
| 20260505184852 | 63 | 232 | 3.0 | 7.0 | 0.00 | 0.00 | 0.00 | 40 | 1017.7 |
| 20260505184324 | 63 | 274 | 1.0 | 4.0 | 0.00 | 0.00 | 0.00 | 41 | 1017.6 |
| 20260505183838 | 63 | 157 | 1.0 | 5.0 | 0.00 | 0.00 | 0.00 | 41 | 1017.6 |
| 20260505183324 | 63 | 225 | 2.0 | 5.0 | 0.00 | 0.00 | 0.00 | 41 | 1017.5 |
| 20260505182817 | 63 | 181 | 3.0 | 6.0 | 0.00 | 0.00 | 0.00 | 40 | 1017.6 |
| 20260505182323 | 63 | 212 | 1.0 | 5.0 | 0.00 | 0.00 | 0.00 | 41 | 1017.5 |
| 20260505181817 | 64 | 229 | 2.0 | 5.0 | 0.00 | 0.00 | 0.00 | 41 | 1017.5 |
| 20260505181332 | 64 | 266 | 1.0 | 6.0 | 0.00 | 0.00 | 0.00 | 41 | 1017.5 |
| 20260505180849 | 64 | 205 | 1.0 | 8.0 | 0.00 | 0.00 | 0.00 | 41 | 1017.4 |
| 20260505180314 | 64 | 228 | 2.0 | 6.0 | 0.00 | 0.00 | 0.00 | 42 | 1017.2 |
| 20260505175827 | 64 | 207 | 2.0 | 9.0 | 0.00 | 0.00 | 0.00 | 41 | 1017.2 |
| 20260505175343 | 65 | 230 | 3.0 | 9.0 | 0.00 | 0.00 | 0.00 | 42 | 1017.2 |
| 20260505174819 | 65 | 223 | 2.0 | 8.0 | 0.00 | 0.00 | 0.00 | 41 | 1017.2 |
| 20260505174314 | 65 | 232 | 4.0 | 9.0 | 0.00 | 0.00 | 0.00 | 41 | 1017.3 |
| 20260505173816 | 66 | 248 | 4.0 | 11.0 | 0.00 | 0.00 | 0.00 | 41 | 1017.2 |
| 20260505173400 | 66 | 205 | 4.0 | 11.0 | 0.00 | 0.00 | 0.00 | 41 | 1017.3 |
| 20260505172825 | 67 | 205 | 1.0 | 7.0 | 0.00 | 0.00 | 0.00 | 41 | 1017.3 |
| 20260505172340 | 67 | 234 | 2.0 | 11.0 | 0.00 | 0.00 | 0.00 | 40 | 1017.3 |
| 20260505171825 | 67 | 259 | 3.0 | 7.0 | 0.00 | 0.00 | 0.00 | 40 | 1017.1 |
| 20260505171338 | 68 | 150 | 2.0 | 10.0 | 0.00 | 0.00 | 0.00 | 39 | 1017.0 |
| 20260505170825 | 68 | 219 | 5.0 | 10.0 | 0.00 | 0.00 | 0.00 | 39 | 1016.9 |
| 20260505170320 | 68 | 207 | 4.0 | 10.0 | 0.00 | 0.00 | 0.00 | 38 | 1016.8 |
| 20260505165824 | 69 | 241 | 4.0 | 15.0 | 0.00 | 0.00 | 0.00 | 37 | 1016.6 |
| 20260505165319 | 70 | 166 | 5.0 | 10.0 | 0.00 | 0.00 | 0.00 | 35 | 1016.6 |
| 20260505164827 | 71 | 236 | 6.0 | 10.0 | 0.00 | 0.00 | 0.00 | 35 | 1016.6 |
| 20260505164333 | 71 | 259 | 3.0 | 7.0 | 0.00 | 0.00 | 0.00 | 36 | 1016.6 |
| 20260505163849 | 71 | 252 | 2.0 | 7.0 | 0.00 | 0.00 | 0.00 | 35 | 1016.6 |
| 20260505163314 | 71 | 271 | 2.0 | 7.0 | 0.00 | 0.00 | 0.00 | 35 | 1016.5 |
| 20260505162849 | 72 | 266 | 2.0 | 5.0 | 0.00 | 0.00 | 0.00 | 35 | 1016.4 |
| 20260505162323 | 72 | 222 | 2.0 | 6.0 | 0.00 | 0.00 | 0.00 | 34 | 1016.5 |
| 20260505161838 | 72 | 244 | 2.0 | 8.0 | 0.00 | 0.00 | 0.00 | 33 | 1016.4 |
| 20260505161345 | 72 | 220 | 2.0 | 8.0 | 0.00 | 0.00 | 0.00 | 33 | 1016.5 |
| 20260505160819 | 73 | 215 | 3.0 | 6.0 | 0.00 | 0.00 | 0.00 | 32 | 1016.5 |
| 20260505160351 | 73 | 249 | 2.0 | 5.0 | 0.00 | 0.00 | 0.00 | 32 | 1016.4 |
| 20260505153344 | 74 | 276 | 3.0 | 9.0 | 0.00 | 0.00 | 0.00 | 29 | 1016.7 |
| 20260505152817 | 75 | 269 | 5.0 | 9.0 | 0.00 | 0.00 | 0.00 | 28 | 1016.7 |
| 20260505152324 | 75 | 225 | 2.0 | 5.0 | 0.00 | 0.00 | 0.00 | 28 | 1016.8 |
| 20260505151838 | 75 | 262 | 2.0 | 11.0 | 0.00 | 0.00 | 0.00 | 29 | 1016.8 |
| 20260505151333 | 75 | 207 | 5.0 | 12.0 | 0.00 | 0.00 | 0.00 | 29 | 1016.7 |
| 20260505150819 | 75 | 116 | 5.0 | 12.0 | 0.00 | 0.00 | 0.00 | 29 | 1016.6 |
| 20260505150315 | 75 | 238 | 5.0 | 12.0 | 0.00 | 0.00 | 0.00 | 28 | 1016.7 |
| 20260505140326 | 76 | 244 | 4.0 | 9.0 | 0.00 | 0.00 | 0.00 | 30 | 1017.4 |
| 20260505124845 | 73 | 11 | 2.0 | 10.0 | 0.00 | 0.00 | 0.00 | 34 | 1018.2 |
| 20260505124318 | 74 | 90 | 3.0 | 9.0 | 0.00 | 0.00 | 0.00 | 33 | 1018.2 |
| 20260505123824 | 74 | 242 | 3.0 | 8.0 | 0.00 | 0.00 | 0.00 | 33 | 1018.3 |
| 20260505123338 | 74 | 185 | 4.0 | 7.0 | 0.00 | 0.00 | 0.00 | 32 | 1018.5 |
| 20260505122830 | 74 | 234 | 2.0 | 7.0 | 0.00 | 0.00 | 0.00 | 32 | 1018.4 |
| 20260505122340 | 74 | 278 | 2.0 | 8.0 | 0.00 | 0.00 | 0.00 | 33 | 1018.5 |
| 20260505121825 | 73 | 150 | 3.0 | 8.0 | 0.00 | 0.00 | 0.00 | 34 | 1018.6 |
| 20260505121321 | 73 | 230 | 3.0 | 9.0 | 0.00 | 0.00 | 0.00 | 34 | 1018.7 |
| 20260505120827 | 74 | 350 | 5.0 | 9.0 | 0.00 | 0.00 | 0.00 | 32 | 1018.7 |
| 20260505120322 | 74 | 207 | 2.0 | 8.0 | 0.00 | 0.00 | 0.00 | 34 | 1018.7 |
| 20260505115825 | 74 | 239 | 3.0 | 8.0 | 0.00 | 0.00 | 0.00 | 34 | 1018.6 |
| 20260505115317 | 73 | 219 | 3.0 | 7.0 | 0.00 | 0.00 | 0.00 | 34 | 1018.6 |
| 20260505114844 | 73 | 152 | 3.0 | 7.0 | 0.00 | 0.00 | 0.00 | 34 | 1018.6 |
| 20260505114317 | 73 | 198 | 3.0 | 7.0 | 0.00 | 0.00 | 0.00 | 33 | 1018.7 |
| 20260505113829 | 73 | 251 | 2.0 | 9.0 | 0.00 | 0.00 | 0.00 | 32 | 1018.7 |
| 20260505113342 | 73 | 239 | 4.0 | 9.0 | 0.00 | 0.00 | 0.00 | 33 | 1018.8 |
| 20260505112845 | 72 | 239 | 1.0 | 6.0 | 0.00 | 0.00 | 0.00 | 32 | 1018.6 |
| 20260505112320 | 72 | 85 | 3.0 | 7.0 | 0.00 | 0.00 | 0.00 | 32 | 1018.9 |
| 20260505111823 | 72 | 113 | 1.0 | 6.0 | 0.00 | 0.00 | 0.00 | 33 | 1018.8 |
| 20260505111316 | 72 | 9 | 1.0 | 8.0 | 0.00 | 0.00 | 0.00 | 33 | 1018.9 |
| 20260505110830 | 72 | 225 | 3.0 | 8.0 | 0.00 | 0.00 | 0.00 | 32 | 1018.9 |
| 20260505110401 | 71 | 234 | 3.0 | 7.0 | 0.00 | 0.00 | 0.00 | 33 | 1019.0 |